• En España
  • Lista de países
  • Para 7 días
  • Temperatura del agua
  • Mapa Satelital
  • El tiempo en el mapa
  • Informadores
  • user-avatar
    Iniciar sesión

    Tiempo cada hora Dobra

    Hoy, 22 Julio, Domingo

    Tiempo Temperatura Precipitaciones Viento Presión Humedad
    00:00 +16°C° 0 mm 1 mps 752 mmHg 79%
    01:00 +16°C° 0 mm 1 mps 752 mmHg 79%
    02:00 +16°C° 0 mm 1 mps 752 mmHg 79%
    03:00 +16°C° 0 mm 1 mps 752 mmHg 78%
    04:00 +15°C° 0 mm 1 mps 752 mmHg 78%
    05:00 +18°C° 0 mm 1 mps 752 mmHg 75%
    06:00 +19°C° 0 mm 1 mps 752 mmHg 71%
    07:00 +21°C° 0 mm 1 mps 752 mmHg 68%
    08:00 +22°C° 0 mm 1 mps 752 mmHg 64%
    09:00 +23°C° 0 mm 1 mps 752 mmHg 59%
    10:00 +25°C° 0 mm 1 mps 753 mmHg 55%
    11:00 +25°C° 0 mm 2 mps 752 mmHg 53%
    12:00 +26°C° 0 mm 2 mps 752 mmHg 50%
    13:00 +27°C° 0 mm 2 mps 752 mmHg 48%
    14:00 +27°C° 0 mm 2 mps 752 mmHg 49%
    15:00 +27°C° 0 mm 2 mps 752 mmHg 50%
    16:00 +27°C° 0 mm 2 mps 752 mmHg 51%
    17:00 +26°C° 0 mm 2 mps 752 mmHg 57%
    18:00 +25°C° 0 mm 2 mps 752 mmHg 63%
    19:00 +24°C° 0 mm 2 mps 752 mmHg 69%
    20:00 +21°C° 0 mm 2 mps 752 mmHg 71%
    21:00 +20°C° 0 mm 2 mps 752 mmHg 74%
    22:00 +19°C° 0 mm 2 mps 753 mmHg 76%
    23:00 +19°C° 0,1 mm 2 mps 753 mmHg 77%

    Mañana, 23 Julio, Lunes

    Tiempo Temperatura Precipitaciones Viento Presión Humedad
    00:00 +19°C° 0,1 mm 1 mps 753 mmHg 78%
    01:00 +19°C° 0,1 mm 1 mps 753 mmHg 79%
    02:00 +19°C° 0 mm 1 mps 753 mmHg 80%
    03:00 +19°C° 0 mm 1 mps 753 mmHg 82%
    04:00 +19°C° 0 mm 1 mps 753 mmHg 83%
    05:00 +20°C° 0 mm 1 mps 753 mmHg 80%
    06:00 +21°C° 0 mm 1 mps 753 mmHg 78%
    07:00 +22°C° 0 mm 1 mps 753 mmHg 75%
    08:00 +23°C° 0,1 mm 1 mps 753 mmHg 70%
    09:00 +25°C° 0,1 mm 2 mps 754 mmHg 65%
    10:00 +26°C° 0,1 mm 2 mps 754 mmHg 61%
    11:00 +26°C° 0,3 mm 2 mps 754 mmHg 60%
    12:00 +27°C° 0,3 mm 3 mps 754 mmHg 60%
    13:00 +27°C° 0,3 mm 3 mps 753 mmHg 60%
    14:00 +26°C° 0,2 mm 4 mps 753 mmHg 61%
    15:00 +26°C° 0,2 mm 4 mps 753 mmHg 63%
    16:00 +26°C° 0,2 mm 4 mps 753 mmHg 65%
    17:00 +25°C° 0 mm 3 mps 754 mmHg 69%
    18:00 +24°C° 0 mm 3 mps 754 mmHg 74%
    19:00 +23°C° 0 mm 2 mps 754 mmHg 78%
    20:00 +20°C° 0 mm 2 mps 754 mmHg 82%
    21:00 +20°C° 0 mm 1 mps 754 mmHg 85%
    22:00 +19°C° 0 mm 1 mps 754 mmHg 89%
    23:00 +19°C° 0 mm 1 mps 754 mmHg 90%

    Pasado mañana, 24 Julio, Martes

    Tiempo Temperatura Precipitaciones Viento Presión Humedad
    00:00 +18°C° 0 mm 1 mps 754 mmHg 90%
    01:00 +18°C° 0 mm 1 mps 754 mmHg 91%
    02:00 +17°C° 0 mm 2 mps 754 mmHg 92%
    03:00 +17°C° 0 mm 2 mps 754 mmHg 92%
    04:00 +17°C° 0 mm 2 mps 754 mmHg 93%
    05:00 +18°C° 0 mm 2 mps 755 mmHg 90%
    06:00 +20°C° 0 mm 2 mps 755 mmHg 86%
    07:00 +21°C° 0 mm 2 mps 755 mmHg 82%
    08:00 +23°C° 0,1 mm 2 mps 755 mmHg 77%
    09:00 +25°C° 0,1 mm 2 mps 755 mmHg 73%
    10:00 +26°C° 0,1 mm 3 mps 755 mmHg 68%
    11:00 +26°C° 0,6 mm 3 mps 755 mmHg 68%
    12:00 +27°C° 0,6 mm 3 mps 754 mmHg 68%
    13:00 +27°C° 0,6 mm 4 mps 754 mmHg 68%
    14:00 +27°C° 0,3 mm 4 mps 754 mmHg 68%
    15:00 +27°C° 0,3 mm 4 mps 754 mmHg 68%
    16:00 +26°C° 0,3 mm 4 mps 754 mmHg 68%
    17:00 +26°C° 0 mm 3 mps 754 mmHg 72%
    18:00 +25°C° 0 mm 3 mps 754 mmHg 75%
    19:00 +24°C° 0 mm 2 mps 754 mmHg 79%
    20:00 +21°C° 0 mm 2 mps 754 mmHg 83%
    21:00 +20°C° 0 mm 2 mps 754 mmHg 87%
    22:00 +20°C° 0 mm 1 mps 754 mmHg 91%
    23:00 +20°C° 0 mm 1 mps 754 mmHg 91%

    25 Julio, Miércoles

    Tiempo Temperatura Precipitaciones Viento Presión Humedad
    00:00 +19°C° 0 mm 1 mps 754 mmHg 91%
    01:00 +19°C° 0 mm 1 mps 754 mmHg 91%
    02:00 +19°C° 0 mm 1 mps 754 mmHg 91%
    03:00 +19°C° 0 mm 1 mps 754 mmHg 91%
    04:00 +19°C° 0 mm 1 mps 754 mmHg 91%
    05:00 +19°C° 0 mm 2 mps 754 mmHg 87%
    06:00 +21°C° 0 mm 2 mps 755 mmHg 83%
    07:00 +23°C° 0 mm 2 mps 755 mmHg 79%
    08:00 +24°C° 0,3 mm 3 mps 755 mmHg 75%
    09:00 +26°C° 0,3 mm 3 mps 755 mmHg 71%
    10:00 +27°C° 0,3 mm 3 mps 755 mmHg 67%
    11:00 +27°C° 0,3 mm 3 mps 755 mmHg 64%
    12:00 +28°C° 0,3 mm 3 mps 755 mmHg 61%
    13:00 +29°C° 0,3 mm 3 mps 754 mmHg 58%
    14:00 +28°C° 0 mm 4 mps 754 mmHg 59%
    15:00 +28°C° 0 mm 4 mps 754 mmHg 59%
    16:00 +28°C° 0 mm 4 mps 754 mmHg 59%
    17:00 +27°C° 0 mm 4 mps 754 mmHg 65%
    18:00 +26°C° 0 mm 3 mps 754 mmHg 70%
    19:00 +25°C° 0 mm 3 mps 755 mmHg 75%
    20:00 +22°C° 0 mm 3 mps 755 mmHg 77%
    21:00 +21°C° 0 mm 2 mps 755 mmHg 80%
    22:00 +19°C° 0 mm 2 mps 755 mmHg 82%
    23:00 +19°C° 0 mm 2 mps 755 mmHg 83%

    26 Julio, Jueves

    Tiempo Temperatura Precipitaciones Viento Presión Humedad
    00:00 +18°C° 0 mm 2 mps 755 mmHg 84%
    01:00 +19°C° 0 mm 1 mps 755 mmHg 85%
    02:00 +19°C° 0 mm 1 mps 755 mmHg 86%
    03:00 +18°C° 0 mm 1 mps 756 mmHg 86%
    04:00 +18°C° 0 mm 1 mps 756 mmHg 87%
    05:00 +20°C° 0 mm 1 mps 756 mmHg 82%
    06:00 +21°C° 0 mm 1 mps 756 mmHg 77%
    07:00 +22°C° 0 mm 1 mps 756 mmHg 72%
    08:00 +24°C° 0 mm 2 mps 756 mmHg 66%
    09:00 +25°C° 0 mm 2 mps 757 mmHg 59%
    10:00 +27°C° 0 mm 2 mps 757 mmHg 53%
    11:00 +28°C° 0 mm 2 mps 757 mmHg 52%
    12:00 +28°C° 0 mm 3 mps 757 mmHg 51%
    13:00 +29°C° 0 mm 3 mps 756 mmHg 50%
    14:00 +29°C° 0 mm 3 mps 756 mmHg 52%
    15:00 +29°C° 0 mm 4 mps 756 mmHg 55%
    16:00 +29°C° 0 mm 4 mps 756 mmHg 57%
    17:00 +28°C° 0 mm 4 mps 756 mmHg 63%
    18:00 +26°C° 0 mm 3 mps 756 mmHg 69%
    19:00 +25°C° 0 mm 3 mps 756 mmHg 75%
    20:00 +24°C° 0 mm 3 mps 756 mmHg 80%
    21:00 +21°C° 0 mm 2 mps 757 mmHg 84%
    22:00 +20°C° 0 mm 2 mps 757 mmHg 88%
    23:00 +20°C° 0 mm 2 mps 757 mmHg 89%

    27 Julio, Viernes

    Tiempo Temperatura Precipitaciones Viento Presión Humedad
    00:00 +19°C° 0 mm 2 mps 757 mmHg 90%
    01:00 +19°C° 0 mm 2 mps 757 mmHg 91%
    02:00 +18°C° 0 mm 2 mps 757 mmHg 90%
    03:00 +18°C° 0 mm 2 mps 757 mmHg 90%
    04:00 +19°C° 0 mm 1 mps 757 mmHg 89%
    05:00 +19°C° 0 mm 2 mps 757 mmHg 84%
    06:00 +20°C° 0 mm 2 mps 757 mmHg 79%
    07:00 +23°C° 0 mm 2 mps 757 mmHg 74%
    08:00 +24°C° 0 mm 2 mps 757 mmHg 69%
    09:00 +26°C° 0 mm 3 mps 757 mmHg 65%
    10:00 +27°C° 0 mm 3 mps 756 mmHg 61%
    11:00 +28°C° 0 mm 3 mps 756 mmHg 59%
    12:00 +28°C° 0 mm 4 mps 756 mmHg 58%
    13:00 +29°C° 0 mm 4 mps 756 mmHg 57%
    14:00 +29°C° 0,1 mm 4 mps 756 mmHg 59%
    15:00 +28°C° 0,1 mm 4 mps 755 mmHg 61%
    16:00 +28°C° 0,1 mm 4 mps 755 mmHg 64%
    17:00 +27°C° 0 mm 4 mps 755 mmHg 69%
    18:00 +26°C° 0 mm 3 mps 755 mmHg 75%
    19:00 +25°C° 0 mm 3 mps 755 mmHg 80%
    20:00 +24°C° 0 mm 3 mps 755 mmHg 84%
    21:00 +22°C° 0 mm 3 mps 755 mmHg 88%
    22:00 +21°C° 0 mm 3 mps 755 mmHg 93%
    23:00 +20°C° 0 mm 2 mps 755 mmHg 93%
    Mostrar más